Weather in Staroye Selo

Belarus     55°13′36″N   29°53′06″E
temp.,
°C
wind,
m/s
gust,
m/s
humid.,
%
clouds,
%
prec.,
mm/h
press.,
hPa
HPBL,
m
15 april, thu
thu1500:00+6ne51092100 0.1 1019347
03:00+5nne51193100 0.1 1018336
06:00+5ne51295100 0.1 1018451
09:00+6nne61393100 0.2 1017467
12:00+7nne71290100 0.5 1017503
15:00+6nne7139398 1.6 1017517
18:00+7nne71393100 0.2 1016552
21:00+8ne7159294 0.9 1015610
16 april, fri
fri1600:00+8ne71493100 0.8 1015529
03:00+8ne61394100 1.3 1015611
06:00+8ene61394100 2.6 1015688
09:00+9ene61189100 2.7 1016625
12:00+11ene61081100 0.1 1017881
15:00+13ene8107588 0.3 1018988
18:00+10ene61189100 3.5 1018667
21:00+8ne71190100 8.8 1019273
17 april, sat
sat1700:00+9ene51193100 0.2 1019429
03:00+9ene61391100 0.3 1019549
06:00+8ene5119450 0.1 1021376
09:00+9e6985100 0.1 1022669
12:00+10ene5778100 0.0 1023866
15:00+11ene5779100 0.0 1023853
18:00+11ne51080100 0.1 1023554
21:00+10ne51280100 0.1 1023408
18 april, sun
sun1800:00+8ne6138313 0.0 1023359
03:00+6ne513835 0.0 1023357
06:00+5ne5118269 0.0 1023294
09:00+8ene69690 0.0 1023474
12:00+12ene67580 0.0 1023974
15:00+14ene675281 0.0 10231574
18:00+13ene4760100 0.0 1023265
21:00+11ene3862100 0.0 1024191
19 april, mon
mon1900:00+10ene3767100 0.0 1025176
03:00+8ene367192 0.0 1026162
06:00+6ene377512 0.0 1026176
09:00+9ene46655 0.0 1026366
12:00+13e57505 0.0 10261605
15:00+14e564279 0.0 10252185
18:00+12e5958100 0.0 1025568
21:00+10e5106578 0.0 1025448